Regional Weather Roundup
Issued by NWS

Home | Current Version | Previous Version | Graphics & Text | Print | Product List | Glossary On
Versions: 1 2 3 4 5 6 7 8 9 10 11 12 13 14 15 16 17 18 19 20 21 22 23 24 25 26 27
000
ASUS45 KBOI 160010
RWRID

IDAHO REGIONAL WEATHER ROUNDUP
NATIONAL WEATHER SERVICE BOISE ID
500 PM MST FRI DEC 15 2017

NOTE: "FAIR" INDICATES FEW OR NO CLOUDS BELOW 12000 FEET
WITH NO SIGNIFICANT WEATHER AND/OR OBSTRUCTIONS TO VISIBILITY

IDZ012-014-160100-
SOUTHWEST IDAHO


CITY           SKY/WX    TMP DP  RH WIND       PRES   REMARKS
BOISE          CLOUDY    28  22  78 N6        30.15S WCI  22
CALDWELL       CLOUDY    30  25  81 SW6       30.19S WCI  24
MOUNTAIN HOME  CLOUDY    27  27 100 W7        30.13F WCI  19
$$

IDZ016-017-160100-
SOUTHCENTRAL IDAHO


CITY           SKY/WX    TMP DP  RH WIND       PRES   REMARKS
BURLEY         MOCLDY    34  26  72 E6        30.05F WCI  29
JEROME         CLOUDY    32  30  92 CALM      30.07F FOG
TWIN FALLS     CLOUDY    29  28  96 SE7       30.06F FOG     WCI  22
$$

IDZ019>023-160100-
SOUTHEAST IDAHO


CITY           SKY/WX    TMP DP  RH WIND       PRES   REMARKS
IDAHO FALLS    CLOUDY    26  23  88 CALM      30.08F
POCATELLO      CLOUDY    23  20  88 CALM      30.09F
REXBURG        CLOUDY    26  24  92 CALM      30.06F
$$

IDZ006-010-011-018-031-032-160100-
CENTRAL IDAHO MOUNTAINS


CITY           SKY/WX    TMP DP  RH WIND       PRES   REMARKS
MCCALL         CLOUDY    23  20  88 NW6       30.03R WCI  16
HAILEY         MOCLDY    30  27  86 SE9       30.05F WCI  22
STANLEY          N/A     20  15  81 CALM      29.99F
SALMON         CLOUDY    25  20  81 CALM      30.03F
CHALLIS        CLOUDY    24  18  77 CALM      29.99F
$$

IDZ002-004-006-007-026-160100-
NORTHERN IDAHO


CITY           SKY/WX    TMP DP  RH WIND       PRES   REMARKS
LEWISTON       LGT SNOW  30  29  96 W5        30.14R VSB 3/4 WCI  25
LOWELL           N/A     33  32  96 CALM      30.11S
COEUR D`ALENE  CLOUDY    27  25  92 W12       30.08R WCI  17
MULLAN PASS    SNOW      22  21  96 VRB3      29.89R VSB 1/2
$$




USA.gov is the U.S. government's official web portal to all federal, state and local government web resources and services.